Temp
62 62 62 62 62 62 62 62 62 62 62 61 61 62 62 62 62 67 78 88 86 78 83 87 89 89 89 87 87 86 82 76 78 78 81 86 84 87 88 84 83 83 82 82 81
62 62 62 62 62 62 62 62 62 62 62 61 61 62 62 62 69 76 85 80 78 79 90 89 87 88 88 86 87 87 81 80 84 86 85 86 86 86 83 82 77 76 80 80 81
61 61 61 62 62 62 62 62 62 61 61 60 61 62 62 64 77 87 81 79 78 82 92 92 91 89 85 86 85 82 82 84 85 87 89 87 85 87 84 80 82 75 76 78 79
61 61 61 61 61 61 61 61 61 61 61 61 62 62 62 68 76 87 80 78 78 89 92 89 89 85 83 84 86 82 86 85 87 87 86 86 89 85 87 85 88 82 81 79 78
60 60 60 60 60 61 61 61 60 60 61 62 61 62 66 78 83 83 80 80 86 89 90 88 86 85 82 84 85 83 85 87 88 88 88 88 86 85 83 85 85 83 80 80 81
59 59 59 60 60 60 60 60 60 60 61 62 62 62 73 78 87 85 85 87 90 90 88 89 88 89 85 84 84 85 86 87 88 88 87 87 84 86 80 84 81 80 80 81 81
59 59 59 59 59 59 59 59 59 60 61 62 62 67 76 84 88 88 90 88 89 91 88 89 91 89 86 84 87 85 83 88 87 89 87 89 83 80 82 84 80 80 81 81 81
59 59 59 59 59 59 58 58 60 60 62 63 63 68 80 86 88 87 89 87 88 90 91 91 92 88 86 87 84 82 82 80 86 89 85 89 79 79 84 83 80 81 80 80 81
58 58 58 58 58 58 57 58 62 63 64 64 68 73 81 82 85 90 91 88 88 88 91 93 91 84 85 82 80 79 77 76 81 86 86 87 80 80 84 83 79 80 81 81 82
58 58 58 57 57 57 57 58 63 64 67 69 73 74 82 85 88 88 90 90 88 88 87 86 85 83 80 81 73 74 75 76 76 84 84 83 82 80 83 84 80 81 81 82 82
58 57 57 57 57 57 59 68 74 73 71 80 82 80 84 90 93 89 91 89 90 87 80 80 80 77 81 80 78 77 74 73 78 83 83 83 82 80 81 84 82 81 81 82 83
57 57 57 57 56 56 60 75 79 78 74 79 78 80 85 88 85 87 93 86 84 79 80 79 76 81 80 78 77 75 73 75 78 80 82 77 75 77 80 82 85 84 82 84 85
57 57 56 56 55 61 68 76 78 79 74 78 79 81 86 89 85 86 91 85 81 77 78 76 79 80 79 77 75 76 77 75 77 77 78 77 73 74 79 81 83 84 85 86 85
57 56 56 54 62 62 73 77 77 78 70 74 77 84 85 87 84 91 94 89 82 79 77 78 82 79 77 77 81 77 80 80 78 77 73 76 70 71 77 78 80 83 83 86 85
56 56 55 54 57 68 76 74 77 79 57 77 78 89 85 87 86 84 91 89 81 79 78 78 79 77 77 81 83 78 80 78 76 75 74 71 72 76 74 74 78 81 83 85 84
56 56 55 55 55 66 69 73 80 68 56 73 80 79 80 84 84 85 86 91 86 80 79 80 84 83 84 80 82 79 78 75 73 75 68 68 71 73 72 76 82 83 82 83 83
55 54 53 59 71 66 70 79 67 58 75 73 75 79 81 78 80 81 79 78 77 70 72 77 80 83 85 80 80 79 78 69 66 66 65 67 68 73 78 79 81 81 82 82 83
54 53 55 57 62 64 75 74 56 67 69 78 76 77 75 78 80 78 76 75 77 77 73 72 69 80 84 83 80 77 78 70 57 62 66 65 65 75 77 80 80 83 84 83 82
53 58 59 63 62 63 74 63 64 67 74 74 75 73 73 77 78 77 77 77 80 79 74 70 72 80 81 82 83 73 73 75 66 60 64 68 71 78 77 77 77 80 81 80 81
50 54 64 67 65 71 71 60 67 71 74 75 70 74 70 74 75 75 73 79 79 81 84 75 70 77 77 82 78 79 76 70 70 57 56 66 63 70 76 74 75 77 78 80 81
55 63 69 66 68 70 65 66 68 75 75 73 71 71 73 72 77 74 75 79 82 78 82 79 74 73 77 76 76 73 73 68 72 68 64 60 68 77 76 76 75 78 80 80 80
53 63 69 68 66 61 64 66 62 74 77 76 75 75 73 73 72 75 76 78 81 81 76 80 79 71 74 76 77 77 76 76 70 61 64 65 68 77 75 77 78 79 79 81 83
52 54 69 70 62 62 64 67 71 73 74 75 74 76 76 74 69 74 74 78 79 80 76 76 73 68 68 74 74 74 71 71 69 69 61 63 69 76 75 74 77 78 78 76 77
53 57 65 66 61 62 64 66 68 73 73 74 74 75 74 72 71 71 74 76 77 77 67 75 70 72 69 72 77 69 69 70 75 68 68 68 71 74 75 73 74 74 76 75 74
53 54 53 59 60 59 60 63 66 67 71 71 71 73 74 69 69 71 73 75 76 69 72 77 69 68 68 71 73 74 71 69 70 71 68 71 68 74 75 76 77 76 74 73 72
50 51 55 55 53 56 55 60 63 65 66 68 67 72 73 70 75 71 74 73 75 74 73 70 65 67 66 68 71 70 71 72 71 68 68 69 69 77 77 74 73 73 73 71 72
51 51 51 51 55 57 59 59 62 62 68 69 68 69 69 69 72 73 74 74 75 74 69 69 66 66 63 65 67 63 69 71 71 72 74 66 74 76 75 73 74 75 74 73 74
MSLP
1016.54 1016.00 1015.52 1014.98 1014.52 1014.14 1013.65 1013.09 1012.60 1012.25 1012.16 1012.11 1011.98 1011.94 1011.85 1011.63 1011.42 1011.51 1009.86 1007.77 1007.73 1008.12 1008.41 1008.74 1008.62 1008.41 1008.26 1007.89 1007.89 1007.79 1007.15 1006.86 1006.69 1006.45 1006.47 1006.93 1007.16 1008.28 1008.77 1009.28 1010.19 1010.87 1011.54 1012.55 1014.24
1016.66 1016.07 1015.51 1014.97 1014.42 1014.05 1013.57 1013.02 1012.49 1012.10 1011.91 1011.91 1011.76 1011.57 1011.57 1011.55 1010.95 1009.59 1007.11 1007.43 1007.53 1007.84 1007.95 1007.97 1007.93 1007.87 1007.64 1007.59 1007.52 1007.12 1006.82 1006.71 1006.76 1006.29 1006.21 1006.62 1007.17 1007.97 1008.65 1009.22 1010.56 1011.51 1012.56 1013.48 1014.44
1016.68 1016.08 1015.50 1014.98 1014.38 1013.92 1013.44 1012.88 1012.39 1012.02 1011.76 1011.65 1011.53 1011.37 1011.27 1011.24 1010.14 1007.48 1006.60 1007.27 1007.47 1007.68 1007.58 1007.61 1007.64 1007.47 1007.27 1007.38 1007.36 1007.13 1006.63 1006.71 1006.40 1006.34 1006.23 1006.55 1007.31 1007.93 1008.24 1008.98 1009.77 1011.19 1012.61 1013.76 1014.51
1016.71 1016.10 1015.52 1014.97 1014.34 1013.79 1013.32 1012.78 1012.23 1011.84 1011.58 1011.37 1011.24 1011.15 1011.10 1010.80 1008.94 1007.00 1006.79 1007.20 1007.51 1007.58 1007.53 1007.53 1007.46 1007.24 1007.14 1006.96 1007.19 1006.94 1006.63 1006.57 1006.32 1006.29 1006.24 1006.41 1007.02 1007.80 1008.37 1008.93 1009.56 1011.25 1012.31 1013.34 1014.26
1016.77 1016.12 1015.51 1014.91 1014.29 1013.64 1013.09 1012.59 1012.11 1011.67 1011.41 1011.19 1011.09 1011.05 1010.95 1009.80 1007.63 1006.89 1006.81 1007.27 1007.54 1007.53 1007.37 1007.36 1007.23 1007.13 1006.94 1006.95 1007.00 1006.84 1006.54 1006.37 1006.16 1005.94 1006.02 1006.51 1007.14 1007.84 1009.02 1009.64 1010.38 1011.67 1012.99 1013.60 1014.18
1016.76 1016.15 1015.46 1014.79 1014.13 1013.49 1012.84 1012.32 1011.88 1011.58 1011.28 1011.11 1011.07 1011.08 1010.26 1008.49 1006.92 1007.02 1007.02 1007.29 1007.24 1007.33 1007.37 1007.33 1007.11 1007.04 1006.98 1007.05 1007.03 1006.93 1006.63 1006.15 1006.01 1005.89 1006.12 1006.50 1007.47 1007.98 1009.86 1010.40 1011.06 1012.02 1012.70 1013.43 1013.90
1016.66 1016.04 1015.37 1014.67 1013.98 1013.31 1012.58 1012.02 1011.55 1011.29 1011.17 1011.05 1011.10 1010.93 1009.57 1007.62 1006.89 1007.12 1007.10 1007.14 1007.33 1007.21 1007.25 1007.44 1007.25 1007.04 1007.07 1006.89 1007.03 1006.89 1006.54 1005.87 1006.07 1006.05 1006.32 1006.78 1007.36 1008.34 1009.63 1010.40 1011.20 1012.04 1012.74 1013.35 1013.81
1016.60 1015.86 1015.19 1014.50 1013.82 1013.15 1012.41 1011.71 1011.05 1010.92 1011.02 1011.11 1011.13 1010.65 1008.27 1007.05 1006.93 1007.08 1007.10 1007.36 1007.56 1007.40 1007.25 1007.36 1007.30 1007.19 1007.15 1007.21 1007.11 1006.79 1006.63 1006.01 1006.10 1006.02 1006.55 1006.67 1007.11 1008.75 1009.68 1010.27 1011.21 1011.90 1012.58 1013.14 1013.55
1016.48 1015.70 1014.97 1014.27 1013.59 1012.94 1012.28 1011.62 1011.06 1010.95 1011.00 1011.11 1010.99 1009.94 1007.54 1007.12 1006.92 1006.67 1006.76 1006.82 1007.34 1007.46 1007.37 1007.29 1007.25 1007.37 1007.35 1007.00 1006.99 1006.84 1006.29 1006.29 1006.14 1006.25 1006.35 1006.59 1007.29 1008.65 1009.60 1010.13 1010.91 1011.59 1012.11 1012.61 1013.19
1016.34 1015.54 1014.79 1014.04 1013.36 1012.75 1012.11 1011.67 1011.15 1011.00 1011.03 1010.87 1010.21 1009.34 1006.95 1006.14 1006.06 1006.45 1006.78 1006.75 1006.74 1007.12 1007.24 1007.30 1007.30 1007.22 1007.34 1006.93 1006.25 1006.50 1006.47 1006.55 1006.31 1006.45 1006.66 1006.79 1007.41 1008.46 1009.36 1009.85 1010.63 1011.33 1011.87 1012.21 1012.51
1016.24 1015.39 1014.55 1013.76 1013.07 1012.60 1011.98 1011.38 1011.27 1010.75 1010.04 1008.50 1007.89 1007.05 1005.97 1005.62 1005.62 1006.02 1006.23 1006.37 1006.37 1006.65 1006.79 1007.31 1006.93 1006.52 1006.47 1006.67 1006.76 1006.88 1006.91 1006.65 1006.56 1006.58 1006.70 1006.85 1007.51 1008.24 1009.17 1009.69 1010.17 1010.82 1011.33 1011.71 1011.97
1016.10 1015.28 1014.34 1013.44 1012.64 1012.14 1011.86 1010.64 1009.54 1009.49 1008.52 1007.22 1007.02 1006.43 1005.77 1005.42 1005.21 1005.63 1005.84 1005.84 1005.98 1006.19 1006.72 1006.94 1006.28 1006.27 1006.58 1006.75 1006.79 1006.82 1006.74 1006.50 1006.71 1006.87 1006.80 1007.52 1008.07 1008.70 1009.10 1009.33 1009.63 1010.16 1010.78 1011.21 1011.86
1015.94 1015.19 1014.25 1013.16 1012.27 1011.81 1011.22 1009.73 1009.17 1008.93 1008.18 1006.55 1006.03 1005.44 1004.99 1005.05 1004.71 1004.92 1005.34 1005.45 1005.68 1006.10 1006.32 1006.25 1006.29 1006.11 1006.24 1006.41 1006.41 1006.42 1006.21 1006.26 1006.34 1007.06 1007.48 1007.73 1008.41 1008.76 1009.07 1009.40 1009.60 1009.97 1010.37 1010.86 1011.44
1015.73 1015.02 1014.33 1013.14 1012.18 1011.87 1010.26 1009.31 1009.10 1008.76 1007.66 1005.82 1005.19 1004.09 1004.46 1004.43 1004.52 1004.39 1004.71 1004.87 1005.45 1005.66 1006.22 1006.15 1005.95 1005.89 1005.93 1005.86 1005.92 1005.83 1006.20 1006.34 1006.49 1006.78 1007.13 1007.90 1007.57 1008.38 1008.56 1008.71 1009.17 1009.41 1009.88 1010.32 1011.04
1015.43 1014.81 1014.38 1014.28 1013.04 1011.44 1009.67 1009.30 1008.82 1008.45 1006.62 1004.64 1004.19 1003.74 1003.68 1003.74 1003.80 1004.45 1004.52 1004.69 1004.89 1005.38 1006.00 1005.39 1005.35 1005.43 1005.35 1005.08 1005.45 1006.01 1006.32 1006.64 1006.96 1007.13 1007.41 1007.95 1007.92 1007.77 1008.43 1008.30 1007.95 1008.95 1009.44 1010.00 1010.78
1014.90 1014.38 1014.11 1013.56 1013.06 1010.16 1009.57 1009.09 1008.57 1007.77 1005.31 1003.80 1003.38 1003.35 1003.48 1003.46 1003.63 1004.14 1004.43 1004.66 1005.07 1005.29 1005.49 1005.17 1005.17 1004.90 1004.60 1005.17 1005.58 1006.13 1006.37 1006.83 1007.27 1007.27 1007.31 1008.00 1008.04 1007.29 1007.69 1006.95 1006.83 1008.16 1008.98 1009.76 1010.60
1014.19 1013.34 1013.65 1012.99 1010.83 1009.94 1009.50 1008.63 1008.02 1006.48 1004.32 1003.35 1002.84 1002.91 1002.70 1002.98 1003.45 1003.66 1004.01 1004.34 1004.44 1004.93 1004.84 1004.90 1004.64 1004.55 1004.57 1005.05 1005.92 1005.96 1006.08 1006.48 1006.90 1007.12 1007.56 1008.53 1008.28 1007.10 1007.21 1007.35 1007.21 1007.79 1008.48 1009.44 1010.36
1013.42 1012.27 1011.58 1011.21 1010.33 1010.13 1009.17 1008.19 1006.96 1004.91 1003.81 1002.92 1002.55 1002.62 1002.50 1002.70 1003.06 1003.47 1003.75 1004.08 1004.55 1004.44 1004.56 1004.40 1004.45 1004.35 1004.40 1004.54 1004.98 1005.88 1005.99 1006.13 1006.70 1007.43 1007.89 1008.76 1007.72 1006.83 1007.22 1007.38 1007.29 1007.50 1008.32 1009.41 1010.26
1012.79 1011.48 1010.88 1009.88 1010.03 1010.24 1008.78 1007.24 1005.52 1004.53 1003.58 1002.88 1002.61 1002.33 1002.43 1002.50 1002.54 1003.13 1003.30 1003.44 1003.70 1004.08 1003.94 1004.35 1004.29 1004.36 1004.57 1004.72 1005.25 1006.28 1006.54 1006.98 1007.18 1008.65 1008.19 1008.00 1007.73 1007.00 1007.21 1007.17 1007.17 1007.50 1008.30 1009.15 1010.01
1013.28 1011.77 1009.95 1009.25 1009.60 1009.28 1008.07 1006.30 1005.27 1004.39 1003.64 1003.03 1002.24 1001.91 1001.79 1002.10 1002.42 1002.70 1003.09 1002.85 1003.23 1003.59 1003.65 1004.33 1004.43 1004.54 1005.17 1005.00 1005.87 1005.72 1006.70 1007.07 1007.16 1007.55 1007.63 1007.46 1007.45 1006.88 1006.84 1007.17 1007.59 1007.85 1008.20 1008.87 1009.77
1013.14 1011.16 1009.51 1009.20 1009.28 1008.49 1006.93 1005.86 1004.93 1004.04 1003.74 1003.08 1002.39 1002.00 1001.75 1001.69 1001.82 1002.19 1002.39 1002.58 1002.63 1003.40 1003.77 1004.28 1004.64 1005.03 1005.22 1005.05 1005.12 1006.34 1006.45 1007.06 1007.22 1007.57 1007.23 1007.08 1006.63 1006.71 1006.98 1007.23 1007.57 1007.86 1008.29 1008.93 1009.66
1013.46 1011.06 1009.38 1009.50 1008.61 1008.21 1006.71 1005.72 1004.72 1003.80 1003.51 1003.02 1002.73 1002.12 1001.81 1001.74 1001.66 1001.83 1001.90 1002.17 1002.54 1002.85 1003.66 1004.16 1004.23 1004.55 1004.99 1005.45 1005.69 1005.61 1005.73 1006.01 1006.33 1007.59 1007.95 1007.57 1006.57 1006.77 1007.23 1007.28 1007.47 1007.66 1008.08 1008.73 1009.33
1013.96 1011.74 1009.27 1008.81 1008.02 1007.49 1006.67 1005.53 1004.66 1003.91 1003.40 1003.00 1002.54 1002.22 1002.00 1001.83 1002.03 1001.84 1002.10 1002.59 1002.90 1002.95 1003.16 1003.98 1004.39 1004.61 1005.13 1005.64 1005.90 1005.62 1006.01 1006.32 1006.67 1007.03 1007.20 1007.06 1006.34 1006.84 1007.14 1007.38 1007.66 1007.84 1008.36 1009.00 1009.74
1014.33 1011.97 1009.64 1008.89 1008.73 1007.63 1006.63 1005.62 1004.72 1004.08 1003.66 1003.28 1002.76 1002.48 1002.25 1002.15 1002.23 1002.06 1002.33 1002.89 1003.17 1003.38 1003.60 1003.83 1004.17 1003.83 1003.82 1003.73 1004.32 1005.33 1005.71 1006.18 1005.87 1006.21 1006.32 1006.43 1006.20 1006.52 1006.95 1007.47 1007.99 1008.34 1008.72 1009.38 1010.07
1014.48 1012.95 1012.15 1009.98 1009.06 1008.22 1007.35 1006.26 1005.17 1004.50 1004.16 1003.77 1003.11 1002.76 1002.46 1002.49 1002.36 1002.21 1002.44 1002.88 1003.36 1003.84 1004.22 1004.24 1004.25 1004.63 1004.63 1004.43 1004.40 1004.49 1004.98 1005.62 1005.75 1005.99 1006.05 1005.94 1006.33 1006.40 1006.97 1007.29 1007.47 1008.03 1008.80 1009.44 1010.15
1015.10 1014.10 1012.78 1011.29 1010.19 1009.04 1007.85 1006.82 1005.95 1005.36 1004.84 1004.12 1003.76 1003.12 1003.08 1002.87 1002.35 1002.27 1002.43 1002.80 1002.90 1004.08 1004.30 1004.83 1005.03 1005.15 1005.18 1005.15 1004.89 1004.86 1005.22 1005.40 1005.84 1006.15 1006.27 1006.31 1006.29 1006.69 1006.98 1007.49 1007.77 1007.88 1008.40 1008.87 1009.54
1015.85 1015.33 1014.27 1011.95 1010.38 1009.39 1008.31 1007.58 1006.85 1006.40 1005.35 1005.00 1004.58 1004.17 1004.11 1004.16 1003.72 1003.34 1003.25 1003.16 1003.36 1003.81 1004.53 1005.03 1005.22 1005.52 1005.54 1005.86 1005.60 1005.52 1005.12 1005.20 1005.53 1005.75 1005.66 1005.98 1006.10 1006.57 1006.91 1007.29 1007.32 1007.48 1007.89 1008.19 1008.86
Wind_Speed
20 20 20 19 18 18 18 18 17 15 14 12 11 8 6 7 9 4 7 5 4 12 8 8 4 3 2 2 1 1 2 4 4 2 2 4 4 4 3 8 4 4 7 14 21
20 20 20 20 19 18 17 17 17 16 14 12 10 8 5 4 2 8 7 9 8 11 6 5 4 2 3 1 2 2 3 7 2 3 3 9 6 9 5 7 6 15 18 23 21
21 21 21 21 21 20 18 18 17 16 13 12 8 5 4 3 3 4 5 11 13 8 3 2 4 1 2 0 1 1 5 4 2 7 5 8 8 4 10 6 6 17 23 21 20
21 21 21 22 22 21 20 19 18 16 13 11 6 4 2 3 2 2 7 13 12 6 5 5 2 2 2 2 2 2 2 3 5 2 6 9 10 6 8 4 7 21 24 22 21
22 22 22 22 22 22 21 20 18 15 12 8 2 3 3 2 5 4 14 13 8 6 6 5 3 3 2 1 2 1 4 5 6 1 5 10 6 3 5 8 19 21 19 19 18
23 23 23 23 23 22 21 20 17 12 10 3 3 4 2 2 3 8 13 9 10 5 5 4 3 2 4 2 2 0 6 7 3 4 6 8 6 4 6 13 18 20 19 17 17
23 23 23 23 23 23 23 21 17 11 6 3 5 3 1 1 2 9 5 4 5 4 5 2 1 1 1 1 3 3 3 3 3 7 5 7 7 5 13 14 18 16 14 15 15
23 23 23 23 24 23 23 22 15 3 3 5 4 3 4 2 7 8 5 5 3 2 2 2 1 3 0 1 3 1 1 4 3 9 3 7 5 8 13 16 15 15 13 14 15
23 23 23 23 23 22 21 19 4 5 4 5 3 2 2 4 4 6 3 5 6 2 0 1 2 3 2 2 3 2 3 2 3 1 5 6 3 9 13 13 14 14 13 13 12
24 24 24 24 22 20 20 8 2 4 3 4 4 3 3 3 5 7 4 10 4 7 3 1 3 2 2 5 5 3 1 2 4 5 5 10 6 10 12 13 12 12 12 12 13
25 25 25 25 23 20 9 2 3 3 3 5 0 3 1 2 7 5 5 6 4 4 5 1 6 8 7 5 2 3 2 5 3 3 6 9 8 10 11 11 11 13 12 12 13
25 25 26 26 24 18 3 3 4 3 7 7 7 6 4 2 5 5 9 5 3 5 4 4 7 5 3 4 4 2 4 5 3 3 5 8 5 3 10 10 12 12 12 12 10
25 25 26 27 28 2 4 4 3 2 3 4 5 5 4 7 4 11 11 5 4 6 7 4 3 8 5 4 5 5 3 5 4 5 7 11 3 5 6 7 9 9 8 10 10
25 24 24 30 3 5 4 2 6 5 3 4 6 6 7 5 5 4 11 5 3 9 6 5 2 5 5 6 7 4 5 4 8 5 4 3 5 7 11 12 12 12 11 9 9
25 24 21 13 8 4 3 8 2 4 4 5 5 3 4 10 9 7 4 3 7 7 6 3 5 7 7 4 10 3 4 4 4 4 5 5 4 4 7 14 19 15 15 10 7
26 24 22 2 3 8 10 7 3 3 7 4 5 8 11 6 4 6 10 3 2 5 2 3 1 3 2 5 2 13 5 5 4 1 5 2 7 5 8 19 18 16 15 12 9
29 28 14 3 3 4 7 3 3 6 2 7 6 9 17 9 6 8 14 14 8 7 8 2 3 1 4 8 5 3 6 2 3 3 1 4 4 7 3 6 14 16 17 14 12
32 28 1 6 3 5 3 4 6 3 6 2 4 9 14 10 10 5 13 14 5 3 5 7 7 8 5 3 5 5 4 3 3 3 2 1 5 1 3 10 11 15 19 15 14
28 3 3 4 9 3 4 8 8 6 2 1 4 8 10 7 5 7 11 15 13 10 5 6 5 2 0 4 2 6 5 3 7 2 4 1 3 10 4 6 4 14 19 18 16
7 5 3 2 8 3 5 7 5 4 2 2 7 5 13 15 10 13 11 8 10 14 6 4 5 1 5 4 11 2 10 5 1 3 3 2 4 5 6 3 6 14 19 19 17
3 4 6 4 4 2 9 7 6 6 5 4 3 5 5 8 13 10 12 4 8 11 10 8 3 4 5 5 10 6 5 6 5 2 4 4 2 5 6 5 11 13 17 18 18
5 3 3 3 4 1 6 6 4 4 4 3 3 5 6 10 8 10 12 2 6 14 12 9 6 7 4 2 2 0 4 7 7 6 0 3 6 3 5 9 12 15 17 18 19
5 4 1 3 4 4 2 4 3 4 4 3 3 6 3 7 4 6 7 3 8 11 12 11 5 6 4 4 3 6 5 4 6 3 8 6 6 2 3 5 10 13 15 15 15
4 2 1 2 2 2 4 4 5 2 4 3 3 2 3 4 0 8 9 2 5 4 5 8 5 9 15 15 5 7 8 8 8 7 7 8 8 4 2 4 7 10 12 13 12
2 2 2 1 2 2 2 1 5 5 2 2 3 7 5 4 3 3 2 6 4 6 4 5 6 4 1 2 6 9 15 14 11 6 8 3 7 3 2 5 10 11 11 12 14
4 4 2 2 4 3 1 3 3 1 2 3 4 4 7 5 5 9 7 4 4 4 4 2 4 3 4 1 3 8 11 12 7 5 3 5 8 5 6 4 6 12 14 17 17
2 1 3 1 1 2 1 1 3 2 4 2 4 2 6 3 3 4 4 7 4 5 5 4 7 5 5 1 3 4 12 13 7 7 7 9 8 3 6 9 11 13 16 18 17
Wind_Direction
353 350 347 344 342 341 338 334 331 328 324 321 319 311 297 299 293 184 233 213 175 147 134 142 157 154 181 104 137 165 95 77 38 32 22 151 118 101 99 137 79 40 128 130 148
351 349 346 342 340 339 335 331 329 326 324 320 317 308 298 315 257 242 240 155 160 165 135 151 138 140 102 73 65 12 29 26 269 278 320 170 143 144 154 156 81 82 108 131 149
350 347 344 341 338 337 335 331 329 326 324 319 315 298 286 296 253 242 187 153 155 175 148 116 115 64 89 358 94 101 32 7 286 271 234 174 139 142 155 197 175 150 142 147 157
349 345 342 340 337 335 334 331 329 325 323 319 301 258 254 239 138 84 167 151 149 160 124 130 129 116 98 91 68 319 294 275 308 336 157 178 141 146 162 358 137 149 150 152 164
347 344 341 339 336 333 331 331 328 324 323 318 236 201 222 184 260 30 135 134 137 150 149 148 157 137 87 56 14 161 320 296 308 292 155 142 144 115 74 95 125 137 149 158 167
344 342 339 337 336 333 330 330 325 321 319 304 183 184 233 204 72 136 128 131 146 144 155 158 147 154 102 140 243 171 300 321 9 112 126 155 129 140 98 132 129 147 155 167 175
342 339 337 336 335 333 330 328 318 306 297 191 179 263 238 49 107 146 140 121 150 132 149 177 108 39 142 95 7 353 317 14 137 162 146 164 157 74 142 144 140 154 162 170 182
340 338 336 335 334 333 330 328 318 258 183 166 185 268 249 38 140 150 139 101 118 116 96 116 139 95 318 72 45 339 115 167 141 171 143 226 182 107 151 149 152 160 167 179 190
338 336 334 333 332 332 330 327 24 121 137 158 225 278 213 145 181 166 181 148 129 137 119 92 101 63 128 151 182 35 142 173 199 209 146 206 171 141 164 164 159 170 182 188 191
337 335 333 332 331 331 327 298 79 129 167 219 249 254 202 158 146 141 165 158 141 136 119 122 81 149 118 206 213 159 213 175 225 154 190 188 169 156 171 182 168 176 186 195 202
336 334 332 331 329 331 322 209 221 187 214 231 236 288 309 104 143 153 166 163 129 147 167 117 209 213 212 206 106 111 208 246 231 175 175 208 179 176 172 193 180 184 192 201 218
336 334 332 330 327 328 192 261 90 9 298 235 248 274 264 287 147 142 167 164 154 156 139 166 237 197 205 172 213 227 218 185 116 54 194 172 157 197 197 204 211 199 202 211 211
334 334 333 329 322 247 289 246 22 177 262 271 199 209 197 177 195 180 179 137 140 157 185 196 119 130 182 167 172 177 196 174 133 106 78 144 180 214 205 224 219 227 220 217 223
332 333 336 331 270 339 260 51 322 203 299 220 206 223 152 183 199 162 177 154 157 198 168 249 177 214 182 223 193 173 176 139 131 192 180 275 211 218 216 227 221 221 220 216 223
329 330 332 328 310 250 36 331 285 221 276 141 159 128 155 182 135 184 173 125 184 167 183 158 178 176 191 205 185 104 93 99 99 114 170 194 239 146 212 235 234 212 219 214 204
324 324 330 173 227 259 316 316 209 227 247 172 140 157 159 181 136 115 174 107 99 151 228 263 271 236 157 100 97 147 105 71 91 127 237 112 246 204 197 227 234 206 203 197 193
321 317 309 229 246 342 307 192 192 228 349 169 166 171 179 170 148 164 178 187 185 172 211 194 209 205 151 113 110 158 160 163 196 201 333 113 246 260 222 287 251 213 196 190 189
322 315 223 214 282 330 276 166 216 238 241 38 137 156 188 159 191 151 160 188 215 143 151 200 182 181 170 200 177 183 237 211 221 236 330 104 240 182 277 294 259 201 198 189 187
321 320 243 250 225 277 187 200 210 212 284 251 132 158 185 190 183 171 186 202 201 188 195 173 223 136 65 131 194 152 188 62 110 108 258 72 254 267 288 336 215 185 184 184 188
315 321 269 2 161 191 188 224 229 220 290 239 220 200 180 187 177 193 179 181 198 199 211 157 200 86 128 113 57 230 135 159 88 182 261 235 285 287 315 321 176 184 192 185 185
289 311 17 139 185 197 202 218 226 235 228 222 242 194 205 174 185 181 190 181 206 173 204 160 258 132 167 213 169 144 175 67 107 296 255 290 274 208 241 254 204 203 197 189 187
327 281 62 207 167 253 207 198 210 217 192 234 249 244 207 176 167 185 192 213 164 150 180 180 205 216 181 60 273 91 172 171 215 195 232 310 272 124 272 264 211 205 199 196 193
328 289 337 234 206 197 241 234 238 209 214 189 244 226 191 186 164 172 190 101 161 168 167 172 207 198 178 168 159 217 163 129 109 128 191 224 249 354 322 253 229 215 203 194 181
288 296 285 85 25 262 194 214 208 193 241 236 262 221 174 175 285 165 151 127 145 143 86 139 149 213 228 227 173 178 182 179 208 206 194 227 273 266 333 263 231 238 218 201 189
306 44 35 336 124 329 262 330 194 204 204 253 214 223 186 169 141 155 139 135 104 144 93 190 191 182 63 209 194 197 180 174 198 182 223 222 219 235 268 251 239 220 205 195 190
334 334 354 285 289 258 241 188 212 213 247 169 252 198 196 179 206 184 160 203 161 135 119 111 149 151 139 148 170 171 175 177 188 176 197 177 248 250 264 268 235 220 206 202 198
9 268 281 10 324 234 150 191 169 300 194 339 296 206 169 94 5 34 65 86 100 155 129 134 145 173 174 38 134 223 201 192 187 189 194 201 232 200 263 254 254 239 217 214 195